Simultaneous Nadir Overpasses (SNOs) Predictions

Prediction of SNOs between NOAA-21 and PACE Satellite Orbit:

Table of predicted SNOs for the next 14.0 days since TLE Epoch: 6/14/2024
Index Date (NOAA-21) Time (NOAA-21) Lat,Lon (NOAA-21) SZA (NOAA-21 ) Date (PACE) Time (PACE) Lat,Lon (PACE) SZA (PACE ) Distance(km) Time Diff (sec)
1 06/15/2024 22:46:11 -79.80, -18.71 121.34 06/15/2024 22:47:04 -79.80, -18.72 121.37 0.40 53
2 06/15/2024 23:36:51 79.62, 150.19 58.35 06/15/2024 23:36:09 79.62, 150.27 58.35 1.59 42
3 06/18/2024 03:12:39 -79.77, -85.09 121.43 06/18/2024 03:13:08 -79.77, -85.03 121.46 1.41 29
4 06/18/2024 04:03:19 79.60, 83.79 58.26 06/18/2024 04:02:13 79.59, 83.94 58.27 3.14 66
5 06/20/2024 07:39:06 -79.72,-151.22 121.54 06/20/2024 07:39:11 -79.72,-151.21 121.54 0.16 5
6 06/22/2024 11:15:35 80.85, -39.59 61.03 06/22/2024 11:16:48 81.09, -38.86 61.04 30.23 73
7 06/22/2024 12:05:34 -79.70, 142.34 121.55 06/22/2024 12:05:14 -79.69, 142.47 121.56 2.72 20
8 06/24/2024 15:41:20 79.77, -92.19 58.62 06/24/2024 15:42:10 79.77, -92.34 58.62 3.11 50
9 06/24/2024 16:32:01 -79.65, 76.15 121.58 06/24/2024 16:31:16 -79.65, 76.27 121.58 2.60 45
10 06/26/2024 20:07:49 79.79,-159.00 58.75 06/26/2024 20:08:13 79.79,-158.96 58.73 0.82 24



Historial Predications of SNOs between NOAA-21 and PACE
